Vorticity
16 9 8 7 4 4 4 3 2 3 4 11 16 10 13 7 8 5 10 9 7 8 9 8 9 9 12 11 10 11 11 10 11 9 8 8 8 7 6 8 6 4 5 5
16 11 7 10 7 5 5 5 3 7 12 13 6 12 13 4 6 5 7 7 7 8 10 10 10 8 7 8 7 6 7 7 6 7 7 7 7 8 6 5 5 3 7 8
12 14 12 9 8 6 6 10 11 11 11 9 8 9 5 8 7 7 8 8 10 11 7 2 3 6 11 11 12 9 9 10 10 7 7 9 9 6 2 4 7 6 8 7
11 10 11 12 12 10 11 12 9 9 11 11 9 7 12 9 8 6 7 9 8 7 -1 -0 0 1 3 2 4 2 5 8 5 5 10 10 9 16 14 9 9 11 12 9
13 11 10 12 12 11 9 9 10 11 10 11 10 9 5 6 6 7 6 6 6 5 -1 -2 1 1 2 2 -3 1 2 1 3 6 7 6 20 12 16 8 10 13 7 9
11 8 8 9 8 7 7 10 11 9 9 11 9 5 5 4 6 5 3 4 5 2 4 1 -0 3 3 1 -3 3 9 8 8 16 12 11 20 14 12 9 6 7 6 6
9 7 6 4 5 5 5 6 9 11 9 9 6 6 5 5 5 4 3 3 3 1 2 2 2 1 2 1 -2 1 0 6 9 7 10 12 23 13 12 11 12 9 9 9
9 7 7 5 4 4 5 5 5 8 8 7 6 5 4 4 4 5 4 4 2 2 4 3 1 2 3 2 -2 1 5 13 8 12 10 13 23 13 15 10 6 9 11 10
9 7 7 7 6 5 5 6 5 4 5 5 5 5 4 4 4 4 3 4 3 3 3 4 3 4 2 5 -0 6 16 13 11 9 10 19 15 8 9 12 7 7 9 -0
9 9 8 7 6 7 7 5 4 5 5 3 3 4 3 3 1 2 2 1 4 2 3 7 4 0 2 -1 6 15 15 9 10 12 10 13 5 5 5 3 3 4 5 3
6 8 8 9 8 6 6 7 6 5 5 4 4 3 2 3 4 3 3 4 6 5 6 7 -2 -0 -2 1 6 13 11 17 8 8 8 8 5 5 5 6 5 5 5 6
4 5 6 7 9 8 7 7 6 6 7 6 7 5 5 4 4 4 5 3 3 6 9 3 -0 -4 3 3 12 14 20 22 7 0 1 5 1 4 5 7 3 4 3 4
5 5 4 5 5 7 7 9 7 8 7 8 9 8 7 7 6 5 5 8 6 6 6 -2 -3 -2 5 17 19 15 20 17 6 4 4 5 5 2 5 1 4 7 3 4
6 7 8 6 4 4 6 8 7 8 8 7 8 7 5 6 5 5 5 6 4 5 5 -2 -6 3 16 20 13 11 12 7 5 5 5 5 7 2 -2 3 6 4 4 7
9 6 7 7 9 7 5 6 9 9 7 7 6 6 5 5 6 6 4 4 6 6 0 -2 4 11 20 13 5 11 13 8 -1 1 4 4 2 2 2 3 3 6 8 9
15 6 9 5 4 7 6 6 7 7 6 5 6 5 5 8 4 5 6 6 0 1 -2 6 9 15 12 7 2 10 8 4 4 -1 6 5 4 1 -1 3 8 10 10 11
14 3 7 10 7 7 5 7 8 5 4 6 7 5 4 6 6 5 8 2 -7 -3 10 19 19 11 5 6 6 10 7 6 4 7 6 2 4 1 7 11 11 10 7 7
16 9 6 9 12 10 4 10 8 6 8 7 9 6 1 6 4 9 -1 -9 0 16 23 11 6 5 3 5 5 4 7 6 7 4 4 4 6 11 13 15 9 5 11 10
20 5 2 8 11 13 11 8 7 11 3 5 2 2 -2 -3 0 6 2 -1 20 11 3 3 7 3 5 8 7 6 13 9 5 5 8 10 13 15 8 6 9 9 11 10
29 1 -4 22 -4 19 24 0 6 6 2 5 -5 7 -1 15 15 26 26 15 4 7 1 6 5 5 8 15 16 14 12 9 7 9 15 16 10 5 8 9 12 10 12 17
20 2 3 7 4 -7 20 15 11 19 9 14 12 15 9 5 8 14 14 9 6 5 5 5 5 10 11 9 7 8 10 13 12 13 9 5 7 11 9 6 5 10 14 10
4 20 13 2 9 1 5 -4 10 15 16 17 2 9 14 12 5 7 5 6 6 6 8 6 7 12 9 11 11 8 10 10 6 4 5 8 8 8 9 12 14 13 12 12
5 -3 -3 0 -4 -0 8 4 12 7 2 6 7 5 4 8 5 4 6 6 5 10 7 11 15 10 11 10 9 12 11 7 8 9 8 9 8 9 15 18 10 10 17 20
22 17 10 7 26 7 -6 11 -2 3 8 11 1 8 6 1 12 9 11 12 12 15 14 16 10 6 8 11 13 11 9 9 8 8 10 10 14 18 14 10 16 17 16 13
3 -6 10 10 7 19 22 18 13 4 1 6 16 12 11 11 11 11 14 12 10 14 11 7 8 8 13 13 6 5 7 9 10 10 13 16 11 12 16 17 16 15 12 17
22 6 13 14 9 5 -2 -3 2 12 17 16 13 13 17 12 8 10 9 10 7 7 7 8 7 10 8 7 7 10 11 8 14 20 14 13 14 16 17 16 13 14 22 22
5 6 6 8 21 24 26 25 22 20 22 21 15 10 8 9 8 12 10 10 5 4 4 5 9 13 13 8 11 10 12 19 16 10 11 15 17 16 12 13 21 25 22 15
Height
5726 5732 5738 5745 5751 5756 5762 5765 5771 5774 5777 5781 5782 5785 5788 5790 5791 5792 5792 5793 5793 5794 5795 5795 5795 5796 5796 5795 5794 5794 5793 5792 5790 5789 5787 5785 5782 5779 5776 5773 5772 5769 5764 5767
5723 5729 5735 5741 5747 5753 5758 5762 5767 5770 5773 5776 5780 5783 5785 5787 5788 5789 5790 5791 5792 5793 5794 5794 5794 5794 5793 5792 5791 5791 5790 5789 5787 5784 5784 5781 5777 5774 5770 5766 5762 5761 5757 5756
5721 5726 5732 5738 5744 5749 5755 5759 5763 5766 5770 5773 5777 5780 5783 5784 5785 5787 5788 5788 5790 5791 5792 5792 5792 5791 5790 5789 5789 5787 5786 5784 5782 5781 5777 5775 5772 5766 5761 5757 5753 5746 5751 5742
5718 5723 5729 5735 5740 5746 5751 5755 5758 5762 5766 5770 5773 5777 5780 5781 5782 5784 5785 5787 5788 5789 5789 5789 5789 5787 5787 5786 5784 5783 5781 5779 5777 5774 5771 5768 5768 5760 5752 5748 5744 5739 5738 5735
5715 5721 5726 5732 5737 5742 5747 5751 5755 5759 5763 5766 5770 5773 5776 5777 5779 5782 5783 5785 5786 5786 5786 5786 5785 5784 5783 5782 5780 5778 5774 5771 5769 5768 5761 5759 5761 5754 5745 5738 5737 5734 5729 5727
5712 5718 5723 5728 5733 5739 5743 5747 5751 5756 5760 5763 5767 5769 5772 5774 5776 5778 5779 5781 5782 5782 5782 5781 5780 5779 5778 5777 5775 5771 5767 5762 5757 5757 5752 5749 5751 5743 5735 5731 5730 5725 5722 5719
5708 5715 5720 5725 5730 5734 5740 5744 5749 5753 5756 5759 5763 5765 5768 5770 5772 5774 5775 5776 5777 5778 5776 5775 5775 5774 5773 5771 5769 5764 5760 5754 5748 5743 5740 5738 5743 5729 5725 5723 5723 5718 5715 5710
5704 5710 5716 5721 5726 5731 5736 5741 5745 5749 5752 5756 5759 5761 5763 5766 5768 5770 5771 5771 5771 5771 5771 5770 5770 5769 5768 5766 5763 5759 5752 5746 5739 5733 5726 5725 5732 5724 5721 5715 5716 5710 5706 5701
5699 5706 5711 5716 5722 5727 5732 5737 5740 5744 5748 5752 5755 5757 5760 5761 5762 5764 5765 5765 5765 5765 5764 5764 5764 5762 5760 5758 5755 5751 5745 5738 5734 5726 5720 5717 5717 5712 5709 5705 5702 5698 5694 5688
5693 5700 5706 5711 5716 5722 5727 5732 5735 5739 5743 5746 5749 5751 5754 5756 5756 5758 5758 5758 5758 5758 5757 5756 5755 5754 5752 5750 5746 5742 5737 5730 5727 5718 5713 5714 5708 5705 5700 5695 5692 5684 5678 5672
5687 5694 5700 5705 5710 5716 5720 5726 5729 5733 5736 5738 5741 5744 5747 5748 5749 5749 5751 5751 5750 5750 5749 5748 5745 5744 5743 5740 5736 5733 5730 5720 5717 5711 5709 5707 5701 5696 5693 5688 5680 5674 5667 5662
5680 5687 5693 5699 5704 5709 5714 5719 5722 5725 5729 5732 5734 5736 5738 5739 5740 5742 5742 5743 5742 5741 5739 5738 5735 5733 5732 5728 5723 5722 5721 5715 5707 5704 5703 5697 5691 5687 5681 5675 5669 5662 5656 5648
5673 5679 5685 5691 5697 5701 5706 5710 5714 5717 5720 5723 5726 5727 5729 5731 5732 5733 5734 5733 5733 5731 5729 5727 5726 5724 5721 5717 5712 5708 5709 5704 5698 5693 5695 5686 5681 5675 5669 5664 5658 5651 5643 5633
5666 5672 5678 5683 5688 5693 5697 5702 5706 5709 5712 5714 5717 5718 5720 5721 5722 5723 5724 5724 5723 5721 5719 5717 5715 5713 5710 5704 5701 5700 5700 5692 5688 5685 5682 5674 5671 5665 5658 5650 5644 5637 5627 5617
5658 5664 5670 5675 5680 5684 5688 5693 5697 5700 5703 5706 5708 5709 5712 5712 5713 5713 5714 5713 5712 5711 5710 5707 5704 5702 5698 5692 5688 5690 5686 5681 5677 5671 5666 5662 5656 5650 5643 5636 5629 5620 5611 5603
5650 5656 5662 5667 5671 5676 5680 5684 5687 5690 5693 5696 5699 5701 5701 5702 5703 5703 5703 5702 5702 5700 5698 5696 5692 5691 5686 5680 5677 5678 5673 5669 5663 5659 5655 5648 5642 5635 5630 5622 5613 5604 5594 5584
5642 5647 5653 5657 5662 5666 5670 5675 5678 5680 5682 5685 5688 5690 5694 5694 5692 5692 5692 5692 5691 5689 5686 5682 5680 5679 5674 5671 5667 5666 5661 5657 5651 5645 5640 5636 5629 5623 5616 5606 5597 5588 5578 5568
5634 5638 5643 5647 5651 5656 5661 5664 5667 5670 5672 5674 5676 5680 5683 5685 5684 5683 5681 5680 5679 5677 5673 5671 5670 5666 5663 5660 5659 5655 5649 5643 5638 5633 5628 5621 5614 5606 5597 5589 5581 5574 5565 5554
5624 5629 5633 5636 5642 5647 5652 5653 5656 5657 5661 5662 5666 5669 5670 5670 5670 5670 5670 5668 5666 5664 5662 5661 5658 5655 5651 5649 5644 5640 5635 5628 5623 5618 5612 5607 5599 5590 5581 5572 5564 5555 5549 5539
5614 5618 5622 5627 5634 5637 5640 5641 5642 5644 5647 5651 5654 5656 5656 5657 5657 5654 5653 5651 5651 5650 5651 5648 5646 5643 5639 5635 5630 5626 5621 5614 5608 5602 5596 5589 5582 5574 5566 5558 5548 5537 5528 5519
5602 5605 5612 5618 5621 5624 5626 5628 5631 5633 5635 5639 5641 5642 5644 5644 5643 5641 5638 5634 5632 5634 5634 5632 5631 5629 5624 5620 5615 5610 5604 5598 5591 5585 5578 5570 5563 5557 5550 5541 5531 5521 5511 5501
5592 5598 5602 5606 5608 5611 5613 5615 5618 5620 5624 5627 5629 5630 5630 5630 5628 5626 5624 5622 5619 5620 5620 5616 5615 5614 5608 5603 5598 5592 5587 5581 5575 5567 5561 5554 5546 5538 5530 5521 5512 5505 5496 5487
5583 5585 5588 5591 5593 5596 5600 5604 5606 5610 5612 5614 5615 5616 5616 5616 5615 5612 5611 5609 5608 5606 5604 5602 5601 5597 5593 5587 5583 5579 5572 5565 5559 5553 5546 5538 5532 5524 5514 5505 5495 5487 5481 5472
5568 5571 5574 5579 5582 5586 5592 5595 5596 5598 5598 5600 5602 5602 5603 5602 5599 5598 5596 5593 5591 5589 5589 5588 5586 5582 5577 5572 5568 5563 5556 5550 5545 5539 5532 5525 5516 5509 5501 5490 5480 5472 5465 5457
5556 5560 5563 5570 5573 5576 5579 5581 5583 5585 5586 5587 5588 5588 5588 5586 5583 5583 5580 5577 5574 5574 5574 5573 5570 5566 5561 5557 5551 5546 5541 5536 5530 5522 5515 5508 5500 5493 5487 5477 5467 5458 5450 5442
5543 5548 5555 5557 5561 5561 5564 5566 5569 5571 5573 5574 5574 5574 5573 5571 5569 5569 5566 5563 5562 5560 5559 5556 5553 5550 5546 5540 5535 5531 5526 5520 5514 5507 5499 5492 5484 5477 5470 5463 5453 5445 5434 5427
5534 5541 5543 5545 5548 5549 5552 5554 5557 5557 5559 5560 5559 5560 5559 5558 5555 5554 5552 5549 5548 5546 5544 5540 5539 5536 5529 5524 5520 5515 5510 5504 5497 5491 5485 5477 5469 5462 5454 5448 5441 5431 5422 5415